Portada
METAR-TAF:

METAR-TAF

Aeropuertos :

Villavicencio, Colombia

Aeropuerto Vanguardia

latitud: 04-10N, longitud: 073-37W, altitud: 423 m

Observación

El informe se hizo hace 28 minutos, a las 22:00 UTC
Viento 6 kt del norte-noreste
Temperatura 30°C
Humedad 55%
Presión 1009 hPa
Visibilidad 10 km o más
Escasas nubes a una altura de 2000 ft
Nubes dispersas a una altura de 9000 ft

METAR: SKVV 212200Z 03006KT 9999 FEW020 SCT090 30/20 A2979

Hora: 17:28 (22:28 UTC)


TAF: falta

Observaciones y pronósticos meteorológicos de más de 4000 aeropuertos (mensajes METAR y TAF).

Los puntos amarillos y rojos representan las estaciones disponibles.

Ponga el ratón en el punto deseado para ver el nombre de la estación.

Haga clic para ver las observaciones y los pronósticos meteorológicos.

Para cambiar el mapa : haga clic en los botones verdes con una cruz de color negro para hacer un zoom, en el botón verde con un guión para alejar o en las flechas verdes para mapas adyacentes.


METAR-TAF: